Location: Albuquerque Trailhead
(34.7934°N, 106.3736°W)
Time: 00:58:07
(UTC+00:00)

Cosmos 1328 Rocket - Pass Details

Date: 20 June 2021
Orbit: 602 x 626 km, 82.5° (Epoch: 27 July)

Event Time Altitude Azimuth Distance (km) Brightness Sun altitude
Rises 10:33:20 0° 343° (NNW) 2,877 7.3 -14.0°
Reaches altitude 10° 10:35:41 10° 335° (NNW) 1,973 6.4 -13.6°
Maximum altitude 10:39:41 36° 269° (W) 974 4.2 -13.0°
Enters shadow 10:42:31 17° 210° (SSW) 1,558 5.0 -12.6°
